GW4332 Weather Reports


time (UTC)temp
F
wind
direction
speed
knots
gust
knots
rain 1hr
in
rain 24hr
in
rain mn
in
humidity
%
barometer
mb
20260504024030 56 222 3.5 7.8 0.00 0.00 0.02 94 1011.6
20260504023030 56 242 3.5 7.8 0.00 0.00 0.02 94 1011.5
20260504022029 56 222 3.5 5.2 0.00 0.00 0.02 94 1011.5
20260504021030 56 209 2.6 4.3 0.00 0.00 0.02 94 1011.5
20260504020030 56 216 2.6 4.3 0.00 0.00 0.02 94 1011.6
20260504015029 56 235 3.5 7.0 0.00 0.00 0.02 94 1011.6
20260504014030 57 240 5.2 8.7 0.00 0.00 0.02 94 1011.6
20260504013029 57 239 5.2 7.8 0.00 0.00 0.02 94 1011.4
20260504012030 57 232 4.3 7.8 0.00 0.00 0.02 94 1011.6
20260504011029 57 222 3.5 6.1 0.00 0.00 0.02 94 1011.5
20260504010030 57 207 3.5 6.1 0.00 0.00 0.02 94 1011.5
20260504005030 57 229 4.3 7.0 0.00 0.00 0.02 94 1011.4
20260504004029 57 240 5.2 8.7 0.00 0.00 0.02 94 1011.4
20260504003029 57 237 6.1 9.6 0.00 0.00 0.02 94 1011.5
20260504002030 57 227 3.5 5.2 0.00 0.00 0.02 94 1011.5
20260504001030 57 229 3.5 7.0 0.00 0.00 0.02 94 1011.5
20260504000029 57 237 6.1 8.7 0.00 0.00 0.02 94 1011.5
20260503235030 57 238 7.8 10.4 0.00 0.00 0.02 94 1011.6
20260503234030 57 245 7.8 10.4 0.00 0.00 0.02 94 1011.4
20260503233029 58 239 5.2 8.7 0.00 0.00 0.02 93 1011.4
20260503232030 58 206 2.6 4.3 0.00 0.00 0.02 93 1011.4
20260503231030 57 227 3.5 7.0 0.00 0.00 0.02 93 1011.4
20260503230030 58 247 5.2 7.0 0.00 0.00 0.02 93 1011.3
20260503225029 58 254 6.1 7.0 0.00 0.00 0.02 93 1011.3
20260503224029 58 271 6.1 8.7 0.00 0.00 0.02 94 1011.3
20260503223030 58 288 4.3 6.1 0.00 0.00 0.01 93 1011.2
20260503222029 58 292 3.5 6.1 0.00 0.00 0.01 93 1011.2
20260503221029 58 274 6.1 7.8 0.00 0.00 0.01 93 1011.1
20260503220029 58 257 7.8 9.6 0.00 0.00 0.32 93 1011.1
20260503215030 59 244 6.1 10.4 0.00 0.00 0.31 93 1011.0
20260503214030 59 217 5.2 8.7 0.00 0.00 0.29 93 1011.0
20260503213030 59 222 4.3 8.7 0.00 0.00 0.28 93 1010.9
20260503212029 59 207 2.6 6.1 0.00 0.00 0.28 92 1010.9
20260503211030 59 196 3.5 6.1 0.00 0.00 0.28 92 1011.0
20260503210029 59 192 1.7 5.2 0.00 0.00 0.24 92 1010.9
20260503205029 59 198 1.7 3.5 0.00 0.00 0.20 92 1010.9
20260503204030 59 183 0.9 2.6 0.00 0.00 0.20 92 1010.9
20260503203030 59 138 0.0 2.6 0.00 0.00 0.20 92 1010.8
20260503202030 59 156 0.0 0.9 0.00 0.00 0.20 92 1010.8
20260503201030 59 156 0.0 2.6 0.00 0.00 0.20 92 1010.7
20260503200029 59 164 0.0 2.6 0.00 0.00 0.20 92 1010.7
20260503195029 59 206 0.9 2.6 0.00 0.00 0.20 92 1010.7
20260503194030 59 153 0.9 2.6 0.00 0.00 0.20 91 1010.6
20260503193029 59 182 0.9 2.6 0.00 0.00 0.20 91 1010.5
20260503192029 59 182 0.9 3.5 0.00 0.00 0.20 92 1010.5
20260503191030 59 178 0.9 4.3 0.00 0.00 0.20 92 1010.4
20260503190030 59 195 2.6 6.1 0.00 0.00 0.20 92 1010.5
20260503185030 59 196 1.7 5.2 0.00 0.00 0.20 92 1010.3
20260503184030 59 192 2.6 6.1 0.00 0.00 0.20 92 1010.2
20260503183029 59 192 1.7 6.1 0.00 0.00 0.20 92 1010.0
20260503182030 59 209 2.6 6.1 0.00 0.00 0.20 92 1010.0
20260503181031 59 197 1.7 6.1 0.00 0.00 0.20 92 1009.9
20260503180029 59 195 1.7 4.3 0.00 0.00 0.20 93 1009.8
20260503175029 59 193 1.7 4.3 0.00 0.00 0.20 93 1009.8
20260503174030 59 195 2.6 8.7 0.00 0.00 0.20 93 1009.7
20260503173030 59 199 2.6 6.1 0.00 0.00 0.20 93 1009.8
20260503172030 59 203 1.7 5.2 0.00 0.00 0.20 93 1009.7
20260503171029 59 206 1.7 6.1 0.00 0.00 0.20 94 1009.7
20260503131029 59 245 7.8 9.6 0.00 0.00 0.15 93 1010.3
20260503081029 62 155 1.7 6.1 0.00 0.00 0.14 85 1010.1
20260503072030 60 142 0.9 4.3 0.00 0.00 0.14 91 1010.3
20260503071030 60 148 0.9 3.5 0.00 0.00 0.14 91 1010.3
20260503055030 56 120 0.9 6.1 0.00 0.00 0.14 92 1010.3
20260503054029 56 134 0.9 3.5 0.00 0.00 0.14 92 1010.3
20260503053029 56 128 0.0 6.1 0.00 0.00 0.14 92 1010.4
20260503052029 56 108 1.7 6.1 0.00 0.00 0.14 92 1010.4
20260503051030 56 38 0.9 5.2 0.00 0.00 0.14 92 1010.4
20260503050030 56 96 0.9 4.3 0.00 0.00 0.14 92 1010.4
20260503045029 56 160 0.9 5.2 0.00 0.00 0.13 92 1010.5
20260503044030 56 352 0.0 4.3 0.00 0.00 0.13 92 1010.4
20260503043030 56 63 0.0 6.1 0.00 0.00 0.13 92 1010.4
20260503042030 56 98 0.9 7.0 0.00 0.00 0.13 92 1011.0
20260503041030 56 56 0.0 7.8 0.00 0.00 0.13 91 1011.2
20260503040029 55 109 1.7 5.2 0.00 0.00 0.13 91 1011.4
20260503035030 56 187 0.9 2.6 0.00 0.00 0.13 91 1011.6
20260503034030 55 114 0.9 5.2 0.00 0.00 0.13 91 1011.5
20260503033030 55 113 1.7 5.2 0.00 0.00 0.13 91 1011.5
20260503032029 55 170 0.9 5.2 0.00 0.00 0.13 91 1011.5
20260503031030 55 112 1.7 7.0 0.00 0.00 0.13 91 1011.3
20260503030030 55 85 0.9 5.2 0.00 0.00 0.13 91 1011.3
20260503025029 55 50 0.9 6.1 0.00 0.00 0.13 91 1011.4